ASBM-2 (60423 NORAD) Tracking and Keplerian Element Data

This shows tracking and keplerian element data for the satellite.

Feedback or suggestion? Click here.




ElementValue
Catalog60423
NameASBM-2
Epoch Orbit232
Epoch Day283.58098203
Epoch Year2024
RAAN68.7651
Inclination62.363
Eccentricity0.5312038
Argument of Perigee268.1138
Mean Anonmoly33.3743
Mean Motion1.50420009
Decay Rate3.8E-07
L11 60423U 24143B 24283.58098203 .00000038 00000+0 00000+0 0 9992
L22 60423 62.3630 68.7651 5312038 268.1138 33.3743 1.50420009 2322



Live tracking and technical data element details for ASBM-2 (NORAD 60423). ASBM-2 can be tracked NOW for your location showing map with azimuth and elevation plus other details from your city location.







IsCatalogInMostPopularTable: catalog: 60423, numindb: 4
Update: records affected: 1



GetName: 60423 ASBM-2

Hit Count: updated at: Tue, 03 Dec 2024 01:56:03 GMT